Timeline UpdatesTrip UpdatesNews PostsPvt Posts♥♥Travel TipsAdmin PostsConv PostsFollowed PostsChat RequestsBlog PostsPNR Posts

Disclaimer
Search
 
 
Fri Nov 28, 2014 16:21:12 ISTHomeTrainsΣChainsAtlasPNRForumGalleryNewsFAQTripsMembersLoginFeedback
PNR Super Search

Ticket PNR Status Inquiry - PNR: 213-xxxxxxx (E-Ticket)

OLD STATUS

Status Last Updated on: Apr 19 2012 (6:17PM) IST

Date of Journey: Thu Apr 19, 2012   Class: Sleeper - SL
Passenger 1: Waitlist# 14 (Booking Status: W/L 52,RLGN)
Chart PREPARED

Sadbhavana Express/14008

Travel Time: 6h 37m    4 halts    Distance: 304 km    Avg Speed: 45 km/hr
Type: Mail/Express
Zone: NR/Northern
Departs @ 20:48 (Avg 1h 42m late)
Platform# 1
  T T  
Chandausi Junction/CH 
Arrives @ 03:25 +1 night (Avg 1h 11m late)
Platform# 3
   W F 
Lucknow Charbagh NR/LKO 

4 halts. 48 intermediate Stations between Chandausi Junction and Lucknow Charbagh NR

Show ALL intermediate Stations  Show Old Time-Table

#TrkCodeStation NameX/OArrivesAvgDepartsAvgHaltPFDay#KmSpeedElevZoneAddress
1/==/DLIOld Delhi Junction (16)  -16:15+5291-204.526219mNRNear Chandni Chowk Metro Station, Delhi NCT
2/==/GZBGhaziabad Junction (6)  17:03 17:01+5417:05 17:03+542m51-184.559217mNRGhaziabad, Uttar Pradesh
3%==%PKWPilkhua (3)  17:29+1:2317:31+1:262m--1-158.951218mNRPilkhuwa, Uttar Pradesh
4%==%HPUHapur Junction (4)  17:46 17:44+1:2717:48 17:46+1:282m31-147.773214mNRHapur Jn., Uttar Pradesh
5%==%AMROAmroha (3)  18:46+1:4818:48+1:492m11-74.339217mNRAmroha, Uttar Pradesh
6%==%MBMoradabad Junction (7)  19:35+1:4719:45+1:4910m31-43.748201mNRMoradabad, Uttar Pradesh
7|--|CHChandausi Junction (3)»X  20:40+1:4620:48+1:428m110.053193mNRChandausi, Uttar Pradesh
8|--|AOAonla (2)  21:36+1:4821:38+1:482m--142.252176mNRDist. Bareilly, Uttar Pradesh
9/==/SPNShahjahanpur Junction (5)X  23:30+1:5123:35+1:515m--1139.638156mNRShahjahanpur, Uttar Pradesh
10/==/HRIHardoi (5)X  01:13 01:15+1:1501:15 01:20+1:152 5m32202.658146mNRHardoi, Uttar Pradesh
11/==/AMGAlamnagar (3)X  02:58+1:1203:00+1:212m32297.417126mNRLucknow, Uttar Pradesh
12/==/LKOLucknow Charbagh NR (9)•XO  03:25+1:1103:35+1:1710m32304.557124mNR226004, Uttar Pradesh
13%==%NHHNihalgarh (3)  05:08+1:2605:10+1:302m12393.476108mNRJagdishpur, Uttar Pradesh
14%==%MFKAMusafir Khana (3)  05:25+1:3705:27+1:382m12412.344105mNRMusfirKhana, Uttar Pradesh
15%==/SLNSultanpur Junction (3)  06:10+1:3106:15+1:325m32443.96999mNRSultanpur., Uttar Pradesh
16%==%LBALambhua (1)X  06:33 06:34+1:4706:35+1:502 1m12465.87097mNRLambhua, Uttar Pradesh
17/==/JOPJaunpur City (3)  07:29 07:30+1:5507:31+1:562 1m12529.63587mNRJaunpur, Uttar Pradesh
18/==/BSBVaranasi Junction (9)X  09:10+1:1709:25+1:1915m--2587.11882mNRVaranasi 221002, Uttar Pradesh
19|--|BCYVaranasi City (3)  09:34 09:36+2609:36 09:40+312 4m12590.45577mNERVaranasi, Uttar Pradesh
20|--|ARJAunrihar Junction (4)  10:15+1:2710:17+1:312m22622.35580mNERGhazipur, Uttar Pradesh
21|--|GCTGhazipur City (3)  11:00+1:4011:05+1:435m12661.86374mNERGhazipur, Uttar Pradesh
22|--|YFPYusufpur  11:24+1:4711:26+1:472m--2681.84477mNERMDR 94E, Uttar Pradesh
23|--|BUIBallia (3)  12:28+1:3212:33+1:325m--2726.86462mNERBallia, Uttar Pradesh
24|--|SIPSuraimanpur  13:05 13:07+1:3813:07 13:09+1:392m--2763.32960mNERBallia, Uttar Pradesh
25|--|CPRChhapra Junction (6)X  14:10+1:0514:30+1:0720m--2792.45858mNERDistt: Saran, Bihar
26/==/DGADighwara (2)  15:00 15:02+1:5915:02 15:04+1:592m--2823.33860mECR06158-281240, Bihar
27/==/SEESonpur Junction (4)  15:41+1:5015:46+1:505m--2846.53356mECRSaran, Bihar
28/=-/HJPHajipur Junction (3)  15:59 15:56+2:0816:01+2:112 5m32852.03155mECR06224-272230, Bihar
29%==%MFPMuzaffarpur Junction (6)17:45+1:3318:15+1:3130m12905.85357mECRMuzaffarpur, Bihar
30|--|RUSDRunnisaidpur (3) new halt!!  19:02+2:3819:04+2:382m--2947.44459mECRNear Saidpur, Bihar
31|==|SMISitamarhi Junction (5)  19:35+2:3419:40+2:355m--2970.24366mECRSitamarhi, Bihar
32|--|BGUBairgania  20:21+3:0220:23+3:022m--2999.62977mECRSitamarhi, Bihar
33|--|RXLRaxaul Junction (5)  22:15+2:30---21053.0-88mECREast Champaran, Bihar
Scroll to Top
Scroll to Bottom